Back to Top

Language: 

My Weather Underground Personal Weather Station Historical Data with Graphs...

Delerius Weather Station Historical Data
Daily Summary for April 20, 2017 Units:  Metric    English   Both
« Previous Day
Next Day »
Daily Weekly Monthly Yearly Custom
  High: Low: Average:
Temperature: 15.3 °C 8 °C 11.5 °C
Dew Point: 10.1 °C 4.7 °C 8 °C
Humidity: 94 % 61 % 80 %
Wind Speed: 22.5 km/h 0 km/h 10 km/h
Wind Gust: 40.2 km/h - -
Wind:- - WNW
Pressure: 1034.8 hPa 1032.4 hPa -
Precipitation: 0.51 mm    
Historical Graphs
 
 
Tabular Data for April 20, 2017
Time Temperature Dew Point Pressure Wind Wind Speed Wind Gust Humidity Rainfall Rate (Hourly) solar Conditions
00:03 9.1 °C 4.9 °C 1034.8 hPa Calm     75 % 0 mm 0 W/m2
00:08 9 °C 4.8 °C 1034.8 hPa Calm     75 % 0 mm 0 W/m2
00:13 8.8 °C 4.8 °C 1034.8 hPa Calm     76 % 0 mm 0 W/m2
00:18 8.6 °C 4.8 °C 1034.8 hPa Calm   1.6 km/h 77 % 0 mm 0 W/m2
00:23 8.5 °C 4.9 °C 1034.8 hPa Calm   1.6 km/h 78 % 0 mm 0 W/m2
00:28 8.3 °C 4.7 °C 1034.8 hPa Calm     78 % 0 mm 0 W/m2
00:33 8.2 °C 4.8 °C 1034.8 hPa Calm     79 % 0 mm 0 W/m2
00:38 8.1 °C 4.8 °C 1034.8 hPa Calm   3.2 km/h 80 % 0 mm 0 W/m2
00:43 8.1 °C 5.1 °C 1034.8 hPa Calm   3.2 km/h 81 % 0 mm 0 W/m2
00:44 8.1 °C 5.1 °C 1034.8 hPa Calm   3.2 km/h 81 % 0 mm 0 W/m2
00:49 8 °C 5.1 °C 1034.8 hPa Calm   3.2 km/h 82 % 0 mm 0 W/m2
00:54 8 °C 5.1 °C 1034.8 hPa West 1.6 km/h 6.4 km/h 82 % 0 mm 0 W/m2
00:59 8 °C 5.3 °C 1034.8 hPa West 1.6 km/h 6.4 km/h 83 % 0 mm 0 W/m2
01:04 8 °C 5.3 °C 1034.8 hPa West 1.6 km/h 4.8 km/h 83 % 0 mm 0 W/m2
01:09 8.1 °C 5.4 °C 1034.8 hPa West 1.6 km/h 3.2 km/h 83 % 0 mm 0 W/m2
01:14 8.1 °C 5.6 °C 1034.8 hPa West 1.6 km/h 6.4 km/h 84 % 0 mm 0 W/m2
01:19 8.1 °C 5.6 °C 1034.4 hPa West 1.6 km/h 6.4 km/h 84 % 0 mm 0 W/m2
01:24 8.1 °C 5.6 °C 1034.4 hPa West 1.6 km/h 6.4 km/h 84 % 0 mm 0 W/m2
01:29 8.1 °C 5.7 °C 1034.4 hPa West 1.6 km/h 6.4 km/h 85 % 0 mm 0 W/m2
01:34 8.1 °C 5.7 °C 1034.4 hPa Calm   6.4 km/h 85 % 0 mm 0 W/m2
01:39 8.1 °C 5.9 °C 1034.4 hPa West 1.6 km/h 8 km/h 86 % 0 mm 0 W/m2
01:44 8.1 °C 5.9 °C 1034.4 hPa West 3.2 km/h 8 km/h 86 % 0 mm 0 W/m2
01:49 8.1 °C 6.1 °C 1034.4 hPa West 3.2 km/h 8 km/h 87 % 0 mm 0 W/m2
01:54 8.1 °C 6.1 °C 1034.4 hPa West 3.2 km/h 6.4 km/h 87 % 0 mm 0 W/m2
01:59 8.1 °C 6.1 °C 1034.4 hPa West 3.2 km/h 8 km/h 87 % 0 mm 0 W/m2
02:04 8.1 °C 6.2 °C 1034.4 hPa West 4.8 km/h 9.7 km/h 88 % 0 mm 0 W/m2
02:09 8.2 °C 6.5 °C 1034.4 hPa West 4.8 km/h 9.7 km/h 89 % 0 mm 0 W/m2
02:14 8.2 °C 6.5 °C 1034.4 hPa West 4.8 km/h 9.7 km/h 89 % 0 mm 0 W/m2
02:19 8.3 °C 6.6 °C 1034.4 hPa West 4.8 km/h 8 km/h 89 % 0 mm 0 W/m2
02:24 8.3 °C 6.6 °C 1034.4 hPa West 3.2 km/h 8 km/h 89 % 0 mm 0 W/m2
02:29 8.3 °C 6.6 °C 1034.4 hPa West 3.2 km/h 8 km/h 89 % 0 mm 0 W/m2
02:30 8.3 °C 6.6 °C 1034.4 hPa West 3.2 km/h 8 km/h 89 % 0 mm 0 W/m2
02:35 8.2 °C 6.5 °C 1034.4 hPa West 3.2 km/h 6.4 km/h 89 % 0 mm 0 W/m2
02:40 8.2 °C 6.7 °C 1034.4 hPa West 3.2 km/h 6.4 km/h 90 % 0 mm 0 W/m2
02:45 8.2 °C 6.7 °C 1034.4 hPa West 1.6 km/h 6.4 km/h 90 % 0 mm 0 W/m2
02:50 8.2 °C 6.7 °C 1034.1 hPa West 1.6 km/h 4.8 km/h 90 % 0 mm 0 W/m2
02:55 8.2 °C 6.8 °C 1034.1 hPa West 1.6 km/h 6.4 km/h 91 % 0 mm 0 W/m2
03:00 8.3 °C 6.9 °C 1034.1 hPa West 3.2 km/h 8 km/h 91 % 0 mm 0 W/m2
03:05 8.4 °C 7 °C 1034.1 hPa West 3.2 km/h 8 km/h 91 % 0 mm 0 W/m2
03:10 8.5 °C 7.1 °C 1034.1 hPa West 3.2 km/h 8 km/h 91 % 0 mm 0 W/m2
03:15 8.6 °C 7.4 °C 1034.1 hPa West 3.2 km/h 8 km/h 92 % 0 mm 0 W/m2
03:20 8.6 °C 7.4 °C 1034.1 hPa West 3.2 km/h 8 km/h 92 % 0 mm 0 W/m2
03:25 8.6 °C 7.4 °C 1034.1 hPa West 3.2 km/h 8 km/h 92 % 0 mm 0 W/m2
03:30 8.7 °C 7.5 °C 1034.1 hPa West 3.2 km/h 6.4 km/h 92 % 0 mm 0 W/m2
03:35 8.7 °C 7.5 °C 1034.1 hPa West 1.6 km/h 6.4 km/h 92 % 0 mm 0 W/m2
03:40 8.7 °C 7.6 °C 1034.1 hPa West 1.6 km/h 6.4 km/h 93 % 0 mm 0 W/m2
03:45 8.8 °C 7.7 °C 1033.7 hPa West 1.6 km/h 6.4 km/h 93 % 0 mm 0 W/m2
03:50 8.8 °C 7.7 °C 1033.7 hPa West 1.6 km/h 8 km/h 93 % 0 mm 0 W/m2
03:55 8.8 °C 7.7 °C 1033.7 hPa West 4.8 km/h 12.9 km/h 93 % 0 mm 0 W/m2
04:00 8.9 °C 7.8 °C 1033.7 hPa West 4.8 km/h 12.9 km/h 93 % 0.25 mm 0 W/m2
04:05 8.9 °C 7.8 °C 1033.7 hPa WNW 4.8 km/h 11.3 km/h 93 % 0.25 mm 0 W/m2
04:10 9 °C 7.9 °C 1033.7 hPa WNW 4.8 km/h 11.3 km/h 93 % 0.25 mm 0 W/m2
04:15 9.1 °C 8 °C 1033.7 hPa WNW 6.4 km/h 9.7 km/h 93 % 0.25 mm 0 W/m2
04:20 9.1 °C 8 °C 1033.7 hPa WNW 4.8 km/h 9.7 km/h 93 % 0.25 mm 0 W/m2
04:25 9.1 °C 8 °C 1033.7 hPa West 4.8 km/h 14.5 km/h 93 % 0.25 mm 0 W/m2
04:30 9.1 °C 8 °C 1033.7 hPa West 8 km/h 14.5 km/h 93 % 0.25 mm 0 W/m2
04:35 9.1 °C 8 °C 1033.7 hPa West 6.4 km/h 12.9 km/h 93 % 0.25 mm 0 W/m2
04:40 9.1 °C 8 °C 1033.4 hPa West 6.4 km/h 12.9 km/h 93 % 0.25 mm 0 W/m2
04:45 9.1 °C 8 °C 1033.4 hPa West 6.4 km/h 12.9 km/h 93 % 0.25 mm 0 W/m2
04:50 9.1 °C 8 °C 1033.4 hPa West 6.4 km/h 14.5 km/h 93 % 0.25 mm 0 W/m2
04:55 9.1 °C 8 °C 1033.4 hPa West 6.4 km/h 14.5 km/h 93 % 0.25 mm 0 W/m2
05:00 9.1 °C 8 °C 1033.4 hPa WNW 6.4 km/h 11.3 km/h 93 % 0 mm 0 W/m2
05:05 9.1 °C 8 °C 1033.4 hPa WNW 6.4 km/h 11.3 km/h 93 % 0 mm 0 W/m2
05:10 9.1 °C 8 °C 1033.4 hPa WNW 4.8 km/h 12.9 km/h 93 % 0 mm 0 W/m2
05:15 9.1 °C 8 °C 1033.4 hPa WNW 4.8 km/h 12.9 km/h 93 % 0 mm 0 W/m2
05:20 9.1 °C 8 °C 1033.4 hPa WNW 4.8 km/h 11.3 km/h 93 % 0 mm 0 W/m2
05:26 9.1 °C 8 °C 1033.4 hPa West 4.8 km/h 11.3 km/h 93 % 0 mm 0 W/m2
05:31 9.1 °C 8 °C 1033.4 hPa West 3.2 km/h 9.7 km/h 93 % 0 mm 0 W/m2
05:36 9 °C 7.9 °C 1033.4 hPa West 3.2 km/h 11.3 km/h 93 % 0 mm 0 W/m2
05:41 9 °C 7.9 °C 1033.4 hPa West 4.8 km/h 12.9 km/h 93 % 0 mm 0 W/m2
05:46 9 °C 7.9 °C 1033.4 hPa West 6.4 km/h 12.9 km/h 93 % 0 mm 0 W/m2
05:47 9 °C 7.9 °C 1033.4 hPa West 6.4 km/h 12.9 km/h 93 % 0 mm 0 W/m2
05:52 8.9 °C 7.8 °C 1033.4 hPa WNW 4.8 km/h 11.3 km/h 93 % 0 mm 0 W/m2
05:57 8.9 °C 7.8 °C 1033.4 hPa WNW 4.8 km/h 11.3 km/h 93 % 0.25 mm 0 W/m2
06:02 8.9 °C 7.8 °C 1033.4 hPa WNW 4.8 km/h 9.7 km/h 93 % 0.25 mm 5 W/m2
06:07 8.9 °C 7.8 °C 1033.7 hPa WNW 3.2 km/h 9.7 km/h 93 % 0.25 mm 5 W/m2
06:13 8.9 °C 7.8 °C 1033.7 hPa WNW 3.2 km/h 9.7 km/h 93 % 0.25 mm 7 W/m2
06:18 8.9 °C 7.8 °C 1033.7 hPa WNW 3.2 km/h 8 km/h 93 % 0.25 mm 7 W/m2
06:23 8.9 °C 7.8 °C 1033.7 hPa WNW 3.2 km/h 8 km/h 93 % 0.25 mm 7 W/m2
06:28 8.9 °C 7.8 °C 1033.7 hPa WNW 1.6 km/h 8 km/h 93 % 0.25 mm 9 W/m2
06:33 8.9 °C 7.8 °C 1033.7 hPa Calm     93 % 0.25 mm 11 W/m2
06:38 8.9 °C 7.8 °C 1033.7 hPa Calm     93 % 0.25 mm 11 W/m2
06:43 8.9 °C 7.8 °C 1033.7 hPa Calm   1.6 km/h 93 % 0.25 mm 14 W/m2
06:48 8.9 °C 7.8 °C 1033.7 hPa Calm   1.6 km/h 93 % 0.25 mm 19 W/m2
06:53 9 °C 7.9 °C 1033.7 hPa Calm     93 % 0 mm 25 W/m2
06:58 9.1 °C 8 °C 1033.7 hPa Calm     93 % 0 mm 26 W/m2
07:03 9.1 °C 8.2 °C 1033.7 hPa Calm     94 % 0 mm 32 W/m2
07:08 9.1 °C 8.2 °C 1033.7 hPa Calm   1.6 km/h 94 % 0 mm 39 W/m2
07:13 9.2 °C 8.3 °C 1033.7 hPa Calm   1.6 km/h 94 % 0 mm 42 W/m2
07:18 9.3 °C 8.4 °C 1033.7 hPa Calm   6.4 km/h 94 % 0 mm 37 W/m2
07:23 9.4 °C 8.5 °C 1033.7 hPa Calm   6.4 km/h 94 % 0 mm 37 W/m2
07:28 9.5 °C 8.6 °C 1034.1 hPa Calm   6.4 km/h 94 % 0 mm 42 W/m2
07:33 9.7 °C 8.8 °C 1034.1 hPa West 4.8 km/h 16.1 km/h 94 % 0 mm 44 W/m2
07:34 9.7 °C 8.8 °C 1034.1 hPa WNW 4.8 km/h 16.1 km/h 94 % 0 mm 46 W/m2
07:39 9.8 °C 8.9 °C 1034.1 hPa WNW 9.7 km/h 19.3 km/h 94 % 0 mm 51 W/m2
07:44 9.9 °C 9 °C 1034.1 hPa WNW 11.3 km/h 20.9 km/h 94 % 0 mm 58 W/m2
07:49 10 °C 8.9 °C 1034.1 hPa WNW 11.3 km/h 20.9 km/h 93 % 0 mm 63 W/m2
07:55 10.1 °C 9 °C 1034.1 hPa WNW 12.9 km/h 20.9 km/h 93 % 0 mm 60 W/m2
08:00 10.2 °C 9.1 °C 1034.1 hPa WNW 14.5 km/h 22.5 km/h 93 % 0 mm 65 W/m2
08:05 10.2 °C 9.1 °C 1034.1 hPa WNW 12.9 km/h 22.5 km/h 93 % 0 mm 74 W/m2
08:10 10.3 °C 9.1 °C 1034.1 hPa WNW 12.9 km/h 19.3 km/h 92 % 0 mm 90 W/m2
08:15 10.3 °C 9.1 °C 1034.1 hPa WNW 11.3 km/h 19.3 km/h 92 % 0 mm 100 W/m2
08:20 10.4 °C 9.2 °C 1034.1 hPa WNW 9.7 km/h 17.7 km/h 92 % 0 mm 100 W/m2
08:25 10.5 °C 9.3 °C 1034.1 hPa WNW 6.4 km/h 14.5 km/h 92 % 0 mm 120 W/m2
08:30 10.6 °C 9.3 °C 1034.4 hPa WNW 6.4 km/h 12.9 km/h 92 % 0 mm 135 W/m2
08:35 10.7 °C 9.4 °C 1034.1 hPa WNW 6.4 km/h 12.9 km/h 92 % 0 mm 181 W/m2
08:40 10.9 °C 9.7 °C 1034.1 hPa WNW 8 km/h 14.5 km/h 92 % 0 mm 220 W/m2
08:45 11.1 °C 9.7 °C 1034.1 hPa WNW 9.7 km/h 19.3 km/h 91 % 0 mm 244 W/m2
08:50 11.3 °C 9.9 °C 1034.1 hPa WNW 9.7 km/h 19.3 km/h 91 % 0 mm 200 W/m2
08:55 11.4 °C 9.8 °C 1034.1 hPa WNW 9.7 km/h 16.1 km/h 90 % 0 mm 193 W/m2
09:00 11.6 °C 10 °C 1034.1 hPa WNW 8 km/h 16.1 km/h 90 % 0 mm 192 W/m2
09:05 11.7 °C 9.9 °C 1034.1 hPa WNW 11.3 km/h 20.9 km/h 89 % 0 mm 178 W/m2
09:10 11.7 °C 9.8 °C 1034.1 hPa WNW 12.9 km/h 22.5 km/h 88 % 0 mm 202 W/m2
09:15 11.7 °C 9.8 °C 1034.1 hPa WNW 11.3 km/h 22.5 km/h 88 % 0 mm 149 W/m2
09:20 11.8 °C 9.9 °C 1034.1 hPa WNW 8 km/h 16.1 km/h 88 % 0 mm 156 W/m2
09:25 11.8 °C 9.7 °C 1034.1 hPa WNW 8 km/h 16.1 km/h 87 % 0 mm 214 W/m2
09:30 11.9 °C 9.8 °C 1034.1 hPa WNW 8 km/h 17.7 km/h 87 % 0 mm 246 W/m2
09:35 12.1 °C 10 °C 1034.1 hPa WNW 8 km/h 17.7 km/h 87 % 0 mm 137 W/m2
09:40 12.2 °C 9.9 °C 1033.7 hPa WNW 9.7 km/h 17.7 km/h 86 % 0 mm 241 W/m2
09:45 12.3 °C 10 °C 1033.7 hPa WNW 9.7 km/h 17.7 km/h 86 % 0 mm 183 W/m2
09:50 12.5 °C 10.1 °C 1034.1 hPa WNW 11.3 km/h 24.1 km/h 85 % 0 mm 105 W/m2
09:55 12.6 °C 9.8 °C 1034.1 hPa WNW 12.9 km/h 25.7 km/h 83 % 0 mm 128 W/m2
10:00 12.4 °C 9.2 °C 1034.1 hPa NW 14.5 km/h 25.7 km/h 81 % 0 mm 306 W/m2
10:05 12.6 °C 9.6 °C 1034.1 hPa NW 12.9 km/h 24.1 km/h 82 % 0 mm 216 W/m2
10:10 12.7 °C 9.5 °C 1034.1 hPa WNW 11.3 km/h 24.1 km/h 81 % 0 mm 218 W/m2
10:15 12.8 °C 9.6 °C 1034.1 hPa WNW 11.3 km/h 22.5 km/h 81 % 0 mm 258 W/m2
10:20 12.9 °C 9.6 °C 1034.1 hPa WNW 11.3 km/h 19.3 km/h 80 % 0 mm 274 W/m2
10:25 13 °C 9.4 °C 1034.1 hPa WNW 12.9 km/h 22.5 km/h 79 % 0 mm 288 W/m2
10:30 13.1 °C 9.6 °C 1034.1 hPa WNW 12.9 km/h 24.1 km/h 79 % 0 mm 311 W/m2
10:35 13.1 °C 9.2 °C 1034.1 hPa WNW 12.9 km/h 24.1 km/h 77 % 0 mm 313 W/m2
10:40 13.2 °C 9.3 °C 1034.1 hPa WNW 14.5 km/h 25.7 km/h 77 % 0 mm 373 W/m2
10:45 13.3 °C 9.2 °C 1034.1 hPa WNW 16.1 km/h 29 km/h 76 % 0 mm 392 W/m2
10:50 13.4 °C 9.3 °C 1034.1 hPa WNW 16.1 km/h 29 km/h 76 % 0 mm 345 W/m2
10:55 13.6 °C 9.2 °C 1033.7 hPa WNW 14.5 km/h 25.7 km/h 75 % 0 mm 359 W/m2
11:00 13.7 °C 9.2 °C 1034.1 hPa WNW 14.5 km/h 25.7 km/h 74 % 0 mm 383 W/m2
11:05 13.8 °C 9.1 °C 1034.1 hPa NW 14.5 km/h 30.6 km/h 73 % 0 mm 403 W/m2
11:11 14 °C 9.1 °C 1033.7 hPa NW 14.5 km/h 30.6 km/h 72 % 0 mm 332 W/m2
11:16 14.2 °C 9.2 °C 1033.7 hPa NW 12.9 km/h 22.5 km/h 72 % 0 mm 353 W/m2
11:21 14.3 °C 8.9 °C 1034.1 hPa WNW 12.9 km/h 24.1 km/h 70 % 0 mm 350 W/m2
11:26 14.4 °C 8.8 °C 1033.7 hPa WNW 14.5 km/h 29 km/h 69 % 0 mm 383 W/m2
11:31 14.4 °C 8.8 °C 1034.1 hPa WNW 16.1 km/h 29 km/h 69 % 0 mm 397 W/m2
11:36 14.7 °C 9.5 °C 1033.7 hPa WNW 14.5 km/h 29 km/h 71 % 0 mm 1111 W/m2
11:41 14.9 °C 9.1 °C 1034.1 hPa WNW 16.1 km/h 29 km/h 68 % 0 mm 209 W/m2
11:46 14.7 °C 8.4 °C 1034.1 hPa WNW 16.1 km/h 25.7 km/h 66 % 0 mm 188 W/m2
11:51 14.4 °C 8.6 °C 1034.1 hPa WNW 14.5 km/h 25.7 km/h 68 % 0 mm 195 W/m2
11:56 14.2 °C 8.8 °C 1034.1 hPa WNW 12.9 km/h 22.5 km/h 70 % 0 mm 195 W/m2
12:01 14.1 °C 8.9 °C 1034.1 hPa WNW 11.3 km/h 22.5 km/h 71 % 0 mm 223 W/m2
12:06 14.1 °C 8.7 °C 1034.1 hPa WNW 11.3 km/h 22.5 km/h 70 % 0 mm 232 W/m2
12:11 14 °C 8.8 °C 1034.1 hPa WNW 12.9 km/h 22.5 km/h 71 % 0 mm 221 W/m2
12:16 13.9 °C 8.5 °C 1034.1 hPa WNW 12.9 km/h 24.1 km/h 70 % 0 mm 178 W/m2
12:21 13.9 °C 8.7 °C 1033.7 hPa WNW 12.9 km/h 24.1 km/h 71 % 0 mm 174 W/m2
12:26 13.9 °C 8.7 °C 1033.7 hPa WNW 12.9 km/h 20.9 km/h 71 % 0 mm 204 W/m2
12:31 13.8 °C 8.4 °C 1033.7 hPa WNW 12.9 km/h 22.5 km/h 70 % 0 mm 232 W/m2
12:36 13.9 °C 8.5 °C 1033.7 hPa WNW 12.9 km/h 22.5 km/h 70 % 0 mm 294 W/m2
12:41 14 °C 8.6 °C 1033.7 hPa WNW 12.9 km/h 20.9 km/h 70 % 0 mm 343 W/m2
12:46 14.2 °C 8.8 °C 1033.7 hPa WNW 12.9 km/h 20.9 km/h 70 % 0 mm 404 W/m2
12:51 14.3 °C 8.7 °C 1033.7 hPa WNW 11.3 km/h 19.3 km/h 69 % 0 mm 269 W/m2
12:56 14.3 °C 8.4 °C 1033.7 hPa West 12.9 km/h 20.9 km/h 68 % 0 mm 188 W/m2
13:01 14.2 °C 8.6 °C 1033.7 hPa West 12.9 km/h 22.5 km/h 69 % 0 mm 257 W/m2
13:06 14.3 °C 8.4 °C 1033.7 hPa WNW 12.9 km/h 22.5 km/h 68 % 0 mm 299 W/m2
13:07 14.3 °C 8.7 °C 1033.7 hPa WNW 12.9 km/h 22.5 km/h 69 % 0 mm 294 W/m2
13:12 14.4 °C 8.3 °C 1033.7 hPa WNW 12.9 km/h 22.5 km/h 67 % 0 mm 225 W/m2
13:17 14.4 °C 8.6 °C 1033.7 hPa West 12.9 km/h 33.8 km/h 68 % 0 mm 195 W/m2
13:23 14.2 °C 7.9 °C 1033.7 hPa West 16.1 km/h 37 km/h 66 % 0 mm 209 W/m2
13:28 14 °C 8.2 °C 1033.7 hPa West 17.7 km/h 37 km/h 68 % 0 mm 209 W/m2
13:33 14 °C 8.2 °C 1033.7 hPa WNW 14.5 km/h 25.7 km/h 68 % 0 mm 236 W/m2
13:38 13.9 °C 7.7 °C 1033.7 hPa WNW 16.1 km/h 25.7 km/h 66 % 0 mm 197 W/m2
13:43 13.9 °C 7.7 °C 1033.7 hPa WNW 16.1 km/h 29 km/h 66 % 0 mm 181 W/m2
13:48 13.9 °C 7.7 °C 1033.7 hPa WNW 16.1 km/h 32.2 km/h 66 % 0 mm 139 W/m2
13:53 13.8 °C 7.6 °C 1033.7 hPa WNW 16.1 km/h 32.2 km/h 66 % 0 mm 160 W/m2
13:58 13.8 °C 7.6 °C 1033.7 hPa WNW 16.1 km/h 29 km/h 66 % 0 mm 200 W/m2
14:03 13.8 °C 7.8 °C 1033.7 hPa WNW 14.5 km/h 25.7 km/h 67 % 0 mm 283 W/m2
14:08 13.9 °C 8.1 °C 1033.4 hPa WNW 14.5 km/h 24.1 km/h 68 % 0 mm 348 W/m2
14:13 14.1 °C 8.3 °C 1033.4 hPa WNW 14.5 km/h 25.7 km/h 68 % 0 mm 415 W/m2
14:18 14.3 °C 8.3 °C 1033.4 hPa West 16.1 km/h 25.7 km/h 67 % 0 mm 380 W/m2
14:23 14.6 °C 8.3 °C 1033.4 hPa WNW 16.1 km/h 29 km/h 66 % 0 mm 359 W/m2
14:28 14.7 °C 8.4 °C 1033.4 hPa WNW 16.1 km/h 30.6 km/h 66 % 0 mm 318 W/m2
14:33 14.7 °C 8.2 °C 1033.4 hPa West 17.7 km/h 30.6 km/h 65 % 0 mm 272 W/m2
14:38 14.7 °C 8.2 °C 1033.1 hPa West 17.7 km/h 29 km/h 65 % 0 mm 441 W/m2
14:43 15.1 °C 8.1 °C 1033.1 hPa WNW 16.1 km/h 29 km/h 63 % 0 mm 397 W/m2
14:48 15.2 °C 7.7 °C 1033.1 hPa WNW 16.1 km/h 29 km/h 61 % 0 mm 227 W/m2
14:53 15.1 °C 7.6 °C 1033.1 hPa WNW 19.3 km/h 37 km/h 61 % 0 mm 225 W/m2
14:58 14.8 °C 7.8 °C 1033.1 hPa WNW 20.9 km/h 37 km/h 63 % 0 mm 381 W/m2
15:03 14.9 °C 8.2 °C 1033.1 hPa WNW 20.9 km/h 35.4 km/h 64 % 0 mm 313 W/m2
15:08 14.8 °C 7.8 °C 1033.1 hPa West 20.9 km/h 40.2 km/h 63 % 0 mm 323 W/m2
15:13 14.7 °C 7.7 °C 1033.1 hPa WNW 22.5 km/h 40.2 km/h 63 % 0 mm 308 W/m2
15:18 14.7 °C 7.9 °C 1033.1 hPa WNW 19.3 km/h 35.4 km/h 64 % 0 mm 418 W/m2
15:23 14.8 °C 8.3 °C 1033.1 hPa WNW 19.3 km/h 33.8 km/h 65 % 0 mm 360 W/m2
15:28 14.9 °C 8.4 °C 1033.1 hPa WNW 20.9 km/h 37 km/h 65 % 0 mm 418 W/m2
15:33 15.2 °C 8.4 °C 1033.1 hPa WNW 20.9 km/h 37 km/h 64 % 0 mm 545 W/m2
15:38 15.3 °C 8.3 °C 1032.7 hPa WNW 19.3 km/h 37 km/h 63 % 0 mm 366 W/m2
15:39 15.3 °C 8.1 °C 1032.7 hPa WNW 19.3 km/h 37 km/h 62 % 0 mm 336 W/m2
15:44 15.2 °C 8.2 °C 1033.1 hPa WNW 17.7 km/h 35.4 km/h 63 % 0 mm 304 W/m2
15:49 15.2 °C 7.9 °C 1032.7 hPa WNW 17.7 km/h 37 km/h 62 % 0 mm 308 W/m2
15:54 15.2 °C 8.2 °C 1032.7 hPa NW 17.7 km/h 37 km/h 63 % 0 mm 364 W/m2
15:59 15.2 °C 8.4 °C 1032.7 hPa WNW 17.7 km/h 33.8 km/h 64 % 0 mm 367 W/m2
16:04 15.1 °C 8.3 °C 1032.7 hPa WNW 19.3 km/h 38.6 km/h 64 % 0 mm 355 W/m2
16:09 15.1 °C 8.3 °C 1032.7 hPa WNW 19.3 km/h 38.6 km/h 64 % 0 mm 278 W/m2
16:14 15.1 °C 8.3 °C 1032.7 hPa WNW 17.7 km/h 37 km/h 64 % 0 mm 306 W/m2
16:19 15.1 °C 8.6 °C 1032.7 hPa WNW 19.3 km/h 37 km/h 65 % 0 mm 323 W/m2
16:24 15 °C 8.4 °C 1032.7 hPa WNW 17.7 km/h 33.8 km/h 65 % 0 mm 292 W/m2
16:29 15 °C 8.4 °C 1032.4 hPa WNW 17.7 km/h 32.2 km/h 65 % 0 mm 251 W/m2
16:35 14.9 °C 8.4 °C 1032.4 hPa WNW 16.1 km/h 32.2 km/h 65 % 0 mm 258 W/m2
16:40 15 °C 8.4 °C 1032.4 hPa NW 14.5 km/h 29 km/h 65 % 0 mm 248 W/m2
16:45 15 °C 8.4 °C 1032.4 hPa NW 14.5 km/h 29 km/h 65 % 0 mm 246 W/m2
16:50 15 °C 8.4 °C 1032.4 hPa NW 16.1 km/h 29 km/h 65 % 0 mm 246 W/m2
16:55 15 °C 8.2 °C 1032.4 hPa WNW 16.1 km/h 29 km/h 64 % 0 mm 211 W/m2
17:00 14.9 °C 8.2 °C 1032.4 hPa WNW 16.1 km/h 29 km/h 64 % 0 mm 190 W/m2
17:05 14.9 °C 8.2 °C 1032.4 hPa WNW 17.7 km/h 30.6 km/h 64 % 0 mm 155 W/m2
17:10 14.7 °C 7.7 °C 1032.4 hPa WNW 17.7 km/h 32.2 km/h 63 % 0 mm 141 W/m2
17:15 14.6 °C 7.9 °C 1032.4 hPa WNW 17.7 km/h 32.2 km/h 64 % 0 mm 142 W/m2
17:20 14.6 °C 8.1 °C 1032.4 hPa WNW 16.1 km/h 29 km/h 65 % 0 mm 137 W/m2
17:25 14.5 °C 8 °C 1032.4 hPa WNW 12.9 km/h 24.1 km/h 65 % 0 mm 107 W/m2
17:30 14.4 °C 8.1 °C 1032.4 hPa WNW 12.9 km/h 25.7 km/h 66 % 0 mm 139 W/m2
17:35 14.4 °C 8.1 °C 1032.4 hPa WNW 16.1 km/h 29 km/h 66 % 0 mm 149 W/m2
17:40 14.2 °C 7.9 °C 1032.4 hPa WNW 19.3 km/h 35.4 km/h 66 % 0 mm 127 W/m2
17:45 13.9 °C 7.9 °C 1032.4 hPa WNW 20.9 km/h 35.4 km/h 67 % 0 mm 114 W/m2
17:50 13.8 °C 7.8 °C 1032.4 hPa WNW 19.3 km/h 33.8 km/h 67 % 0 mm 102 W/m2
17:55 13.8 °C 8 °C 1032.4 hPa WNW 17.7 km/h 32.2 km/h 68 % 0 mm 93 W/m2
18:00 13.7 °C 8.1 °C 1032.7 hPa WNW 16.1 km/h 32.2 km/h 69 % 0 mm 86 W/m2
18:05 13.6 °C 8 °C 1032.4 hPa WNW 17.7 km/h 30.6 km/h 69 % 0 mm 77 W/m2
18:10 13.6 °C 8.2 °C 1032.7 hPa WNW 17.7 km/h 30.6 km/h 70 % 0 mm 67 W/m2
18:15 13.4 °C 8.1 °C 1032.7 hPa WNW 19.3 km/h 32.2 km/h 70 % 0 mm 63 W/m2
18:20 13.4 °C 8.2 °C 1032.7 hPa WNW 17.7 km/h 32.2 km/h 71 % 0 mm 49 W/m2
18:25 13.3 °C 8.2 °C 1032.7 hPa WNW 16.1 km/h 29 km/h 71 % 0 mm 69 W/m2
18:30 13.3 °C 8.2 °C 1032.7 hPa WNW 14.5 km/h 25.7 km/h 71 % 0 mm 76 W/m2
18:35 13.2 °C 8.3 °C 1032.7 hPa WNW 14.5 km/h 29 km/h 72 % 0 mm 65 W/m2
18:40 13.2 °C 8.3 °C 1032.7 hPa WNW 14.5 km/h 30.6 km/h 72 % 0 mm 67 W/m2
18:45 13.1 °C 8.2 °C 1032.4 hPa WNW 16.1 km/h 30.6 km/h 72 % 0 mm 54 W/m2
18:50 13.1 °C 8.4 °C 1032.4 hPa WNW 16.1 km/h 30.6 km/h 73 % 0 mm 60 W/m2
18:56 13.1 °C 8.6 °C 1032.7 hPa WNW 12.9 km/h 30.6 km/h 74 % 0 mm 49 W/m2
19:01 13 °C 8.4 °C 1032.7 hPa WNW 11.3 km/h 24.1 km/h 74 % 0 mm 46 W/m2
19:06 12.9 °C 8.4 °C 1032.7 hPa WNW 12.9 km/h 24.1 km/h 74 % 0 mm 33 W/m2
19:11 12.8 °C 8.5 °C 1032.7 hPa WNW 11.3 km/h 24.1 km/h 75 % 0 mm 32 W/m2
19:16 12.7 °C 8.4 °C 1032.7 hPa WNW 11.3 km/h 22.5 km/h 75 % 0 mm 28 W/m2
19:21 12.7 °C 8.4 °C 1032.7 hPa WNW 12.9 km/h 24.1 km/h 75 % 0 mm 30 W/m2
19:26 12.6 °C 8.3 °C 1032.4 hPa WNW 12.9 km/h 29 km/h 75 % 0 mm 26 W/m2
19:31 12.6 °C 8.5 °C 1032.7 hPa WNW 12.9 km/h 29 km/h 76 % 0 mm 26 W/m2
19:36 12.6 °C 8.5 °C 1032.4 hPa WNW 12.9 km/h 20.9 km/h 76 % 0 mm 23 W/m2
19:41 12.4 °C 8.3 °C 1032.4 hPa West 11.3 km/h 20.9 km/h 76 % 0 mm 19 W/m2
19:42 12.4 °C 8.3 °C 1032.7 hPa West 11.3 km/h 20.9 km/h 76 % 0 mm 19 W/m2
19:47 12.4 °C 8.3 °C 1032.4 hPa WNW 11.3 km/h 22.5 km/h 76 % 0 mm 18 W/m2
19:52 12.3 °C 8.4 °C 1032.4 hPa WNW 11.3 km/h 22.5 km/h 77 % 0 mm 14 W/m2
19:57 12.3 °C 8.4 °C 1032.4 hPa West 11.3 km/h 19.3 km/h 77 % 0 mm 11 W/m2
20:02 12.2 °C 8.3 °C 1032.4 hPa WNW 9.7 km/h 19.3 km/h 77 % 0 mm 9 W/m2
20:07 12.2 °C 8.3 °C 1032.4 hPa WNW 9.7 km/h 17.7 km/h 77 % 0 mm 7 W/m2
20:12 12.1 °C 8.4 °C 1032.4 hPa WNW 9.7 km/h 19.3 km/h 78 % 0 mm 5 W/m2
20:17 11.9 °C 8.2 °C 1032.4 hPa WNW 11.3 km/h 22.5 km/h 78 % 0 mm 0 W/m2
20:18 11.9 °C 8.2 °C 1032.4 hPa WNW 11.3 km/h 22.5 km/h 78 % 0 mm 0 W/m2
20:23 11.8 °C 8.3 °C 1032.4 hPa West 12.9 km/h 22.5 km/h 79 % 0 mm 0 W/m2
20:28 11.7 °C 8.2 °C 1032.4 hPa WNW 9.7 km/h 20.9 km/h 79 % 0 mm 0 W/m2
20:33 11.7 °C 8.2 °C 1032.4 hPa WNW 9.7 km/h 20.9 km/h 79 % 0 mm 0 W/m2
20:38 11.7 °C 8.2 °C 1032.4 hPa WNW 11.3 km/h 22.5 km/h 79 % 0 mm 0 W/m2
20:43 11.6 °C 8.1 °C 1032.4 hPa WNW 9.7 km/h 22.5 km/h 79 % 0 mm 0 W/m2
20:48 11.6 °C 8.3 °C 1032.4 hPa WNW 6.4 km/h 16.1 km/h 80 % 0 mm 0 W/m2
20:53 11.6 °C 8.3 °C 1032.4 hPa WNW 8 km/h 19.3 km/h 80 % 0 mm 0 W/m2
20:58 11.6 °C 8.3 °C 1032.4 hPa WNW 11.3 km/h 19.3 km/h 80 % 0 mm 0 W/m2
21:03 11.6 °C 8.3 °C 1032.4 hPa WNW 11.3 km/h 22.5 km/h 80 % 0 mm 0 W/m2
21:08 11.6 °C 8.3 °C 1032.4 hPa WNW 11.3 km/h 22.5 km/h 80 % 0 mm 0 W/m2
21:13 11.6 °C 8.3 °C 1032.7 hPa WNW 11.3 km/h 22.5 km/h 80 % 0 mm 0 W/m2
21:18 11.5 °C 8.2 °C 1032.7 hPa WNW 9.7 km/h 19.3 km/h 80 % 0 mm 0 W/m2
21:23 11.4 °C 8.1 °C 1032.7 hPa WNW 9.7 km/h 19.3 km/h 80 % 0 mm 0 W/m2
21:27 11.4 °C 8.1 °C 1032.7 hPa WNW 9.7 km/h 19.3 km/h 80 % 0 mm 0 W/m2
21:32 11.4 °C 8.1 °C 1032.7 hPa WNW 9.7 km/h 19.3 km/h 80 % 0 mm 0 W/m2
21:37 11.3 °C 8 °C 1032.7 hPa WNW 8 km/h 17.7 km/h 80 % 0 mm 0 W/m2
21:42 11.2 °C 8.1 °C 1032.4 hPa WNW 9.7 km/h 22.5 km/h 81 % 0 mm 0 W/m2
21:47 11.1 °C 7.9 °C 1032.4 hPa WNW 9.7 km/h 22.5 km/h 81 % 0 mm 0 W/m2
21:52 10.9 °C 7.8 °C 1032.4 hPa WNW 11.3 km/h 20.9 km/h 81 % 0 mm 0 W/m2
21:58 10.8 °C 7.8 °C 1032.4 hPa WNW 11.3 km/h 20.9 km/h 82 % 0 mm 0 W/m2
22:03 10.8 °C 7.8 °C 1032.4 hPa WNW 9.7 km/h 19.3 km/h 82 % 0 mm 0 W/m2
22:08 10.7 °C 7.9 °C 1032.4 hPa WNW 9.7 km/h 19.3 km/h 83 % 0 mm 0 W/m2
22:13 10.6 °C 7.8 °C 1032.4 hPa WNW 9.7 km/h 19.3 km/h 83 % 0 mm 0 W/m2
22:18 10.5 °C 7.7 °C 1032.4 hPa WNW 9.7 km/h 19.3 km/h 83 % 0 mm 0 W/m2
22:23 10.4 °C 7.6 °C 1032.4 hPa WNW 8 km/h 16.1 km/h 83 % 0 mm 0 W/m2
22:28 10.3 °C 7.6 °C 1032.7 hPa WNW 6.4 km/h 16.1 km/h 83 % 0 mm 0 W/m2
22:33 10.2 °C 7.6 °C 1032.7 hPa WNW 8 km/h 16.1 km/h 84 % 0 mm 0 W/m2
22:38 10.2 °C 7.6 °C 1032.4 hPa WNW 8 km/h 19.3 km/h 84 % 0 mm 0 W/m2
22:43 10.1 °C 7.5 °C 1032.4 hPa WNW 9.7 km/h 19.3 km/h 84 % 0 mm 0 W/m2
22:48 10 °C 7.4 °C 1032.4 hPa WNW 9.7 km/h 22.5 km/h 84 % 0 mm 0 W/m2
22:53 10 °C 7.6 °C 1032.4 hPa WNW 9.7 km/h 22.5 km/h 85 % 0 mm 0 W/m2
22:55 9.9 °C 7.5 °C 1032.4 hPa WNW 11.3 km/h 19.3 km/h 85 % 0 mm 0 W/m2
23:00 9.9 °C 7.5 °C 1032.4 hPa WNW 11.3 km/h 20.9 km/h 85 % 0 mm 0 W/m2
23:05 9.9 °C 7.5 °C 1032.4 hPa WNW 12.9 km/h 22.5 km/h 85 % 0 mm 0 W/m2
23:10 9.9 °C 7.5 °C 1032.4 hPa WNW 11.3 km/h 22.5 km/h 85 % 0 mm 0 W/m2
23:15 9.8 °C 7.6 °C 1032.4 hPa WNW 8 km/h 16.1 km/h 86 % 0 mm 0 W/m2
23:20 9.8 °C 7.6 °C 1032.7 hPa WNW 8 km/h 16.1 km/h 86 % 0 mm 0 W/m2
23:25 9.8 °C 7.6 °C 1032.4 hPa WNW 8 km/h 16.1 km/h 86 % 0 mm 0 W/m2
23:30 9.7 °C 7.4 °C 1032.4 hPa WNW 9.7 km/h 17.7 km/h 86 % 0 mm 0 W/m2
23:35 9.7 °C 7.4 °C 1032.4 hPa WNW 11.3 km/h 20.9 km/h 86 % 0 mm 0 W/m2
23:40 9.7 °C 7.4 °C 1032.4 hPa WNW 12.9 km/h 20.9 km/h 86 % 0 mm 0 W/m2
23:45 9.7 °C 7.4 °C 1032.4 hPa WNW 11.3 km/h 20.9 km/h 86 % 0 mm 0 W/m2
23:50 9.6 °C 7.6 °C 1032.4 hPa WNW 9.7 km/h 20.9 km/h 87 % 0 mm 0 W/m2
23:55 9.6 °C 7.6 °C 1032.4 hPa WNW 9.7 km/h 17.7 km/h 87 % 0 mm 0 W/m2
Delerius-Weather
Compliments of Weather Underground - 2.25 mb

Data updates at regular intervals.